• Join FlightAware (Why Join?)
  • Login
  • US Flag 
07:04PM EDT


 

Airport Tracker/Info


-or-


 

Live Flight TrackerFlight Track Log ✈ N7985N ✈ 28-Jun-2013 ✈ KFYE - KHBZ

Flight Track Log - Related Links

Times and Time Zones

All times are in EDT time to prevent confusion due to time zone crossing. See the N7985N flight status page for this flight to view local times or setup timezone preferences in your user account.

Time Position Orientation Groundspeed Altitude Reporting Facility
EDT Latitude Longitude Course Direction KTS MPH feet Rate Location/Type
04:05PM 35.2500 -89.3833 270° West 73 84 1,600  Level KMEM
04:06PM 35.2500 -89.4167 270° West 76 87 2,200 540 Climbing KMEM
04:07PM 35.2500 -89.4500 270° West 75 86 2,800 420 Climbing KMEM
04:08PM 35.2500 -89.4667 270° West 76 87 3,100 120 Climbing KMEM
04:09PM 35.2667 -89.5000 301° West 106 122 3,100  Level KMEM
04:10PM 35.2667 -89.5333 270° West 99 114 3,200 120 Climbing KMEM
04:11PM 35.2833 -89.5667 301° West 94 108 3,400 240 Climbing KMEM
04:12PM 35.2833 -89.6000 270° West 92 106 3,700 300 Climbing KMEM
04:13PM 35.3000 -89.6333 302° West 85 98 4,100 180 Climbing KMEM
04:14PM 35.3000 -89.6667 270° West 103 119 4,100  Level KMEM
04:15PM 35.3000 -89.7000 274° West 111 128 4,100  Level KMEM
04:16PM 35.3023 -89.7100 274° West  Level FlightAware Approximate
04:16PM 35.3000 -89.7333 270° West 102 117 4,100  Level KMEM
04:17PM 35.3000 -89.7500 270° West 92 106 4,200  Climbing KMEM
04:18PM 35.3000 -89.8000 270° West 95 109 4,200  Level KMEM
04:19PM 35.3000 -89.8333 270° West 99 114 4,200 -60 Level KMEM
04:20PM 35.3000 -89.8667 270° West 100 115 4,100 -60 Descending KMEM
04:21PM 35.3167 -89.8833 321° Northwest 100 115 4,100  Level KMEM
04:22PM 35.3167 -89.9167 270° West 94 108 4,100  Level KMEM
04:23PM 35.3167 -89.9500 270° West 91 105 4,100  Level KMEM
04:24PM 35.3167 -89.9833 270° West 97 112 4,100  Level KMEM
04:25PM 35.3333 -90.0167 302° West 98 113 4,200  Climbing KMEM
04:26PM 35.3333 -90.0500 270° West 103 119 4,100 -60 Descending KMEM
04:27PM 35.3333 -90.0833 270° West 103 119 4,100  Level KMEM
04:28PM 35.3500 -90.1167 302° West 100 115 4,100  Level KMEM
04:29PM 35.3500 -90.1500 270° West 102 117 4,100  Level KMEM
04:31PM 35.3500 -90.2167 270° West 101 116 4,200  Climbing KMEM
04:32PM 35.3500 -90.2500 270° West 100 115 4,100  Descending KMEM
04:33PM 35.3500 -90.2833 270° West 100 115 4,200  Climbing KMEM
04:34PM 35.3500 -90.3167 270° West 98 113 4,100 -60 Descending KMEM
04:35PM 35.3500 -90.3500 270° West 99 114 4,100  Level KMEM
04:36PM 35.3667 -90.3833 302° West 96 110 4,100  Level KMEM
04:37PM 35.3667 -90.4167 270° West 99 114 4,100  Level KMEM
04:38PM 35.3744 -90.4461 288° West 100 115 4,100  Level Memphis Center
04:39PM 35.3828 -90.4717 292° West 100 115 4,100  Level Memphis Center
04:40PM 35.3828 -90.5047 270° West 100 115 4,100  Level Memphis Center
04:41PM 35.3847 -90.5403 274° West 106 122 4,100  Level Memphis Center
04:42PM 35.3911 -90.5683 286° West 106 122 4,200  Climbing Memphis Center
04:43PM 35.3931 -90.6017 274° West 106 122 4,100 -60 Descending Memphis Center
04:44PM 35.3931 -90.6372 270° West 106 122 4,100  Level Memphis Center
04:45PM 35.3908 -90.6728 266° West 106 122 4,100  Level Memphis Center
04:46PM 35.3908 -90.7086 270° West 98 113 4,100  Level Memphis Center
04:47PM 35.3928 -90.7442 274° West 104 120 4,100 -60 Level Memphis Center
04:48PM 35.3967 -90.7772 278° West 104 120 4,000  Descending Memphis Center
04:49PM 35.4008 -90.8106 279° West 104 120 4,100 60 Climbing Memphis Center
04:50PM 35.4092 -90.8411 289° West 98 113 4,200  Climbing Memphis Center
04:51PM 35.4069 -90.8742 265° West 98 113 4,100 -60 Descending Memphis Center
04:52PM 35.4108 -90.9072 278° West 103 119 4,100  Level Memphis Center
04:53PM 35.4150 -90.9378 280° West 103 119 4,200  Climbing Memphis Center
04:54PM 35.4211 -90.9736 282° West 103 119 4,100 -60 Descending Memphis Center
04:55PM 35.4208 -91.0067 269° West 103 119 4,100  Level Memphis Center
04:56PM 35.4247 -91.0372 279° West 103 119 4,100  Level Memphis Center
04:57PM 35.4289 -91.0706 279° West 103 119 4,100  Level Memphis Center
04:58PM 35.4328 -91.0961 281° West 103 119 4,100  Level Memphis Center
04:59PM 35.4369 -91.1267 280° West 98 113 4,100  Level Memphis Center
05:00PM 35.4428 -91.1572 283° West 98 113 4,100  Level Memphis Center
05:01PM 35.4447 -91.1903 274° West 98 113 4,100  Level Memphis Center
05:02PM 35.4508 -91.2261 282° West 119 137 4,100  Level Memphis Center
05:03PM 35.4589 -91.2669 284° West 119 137 4,100 -60 Level Memphis Center
05:04PM 35.4689 -91.3053 288° West 119 137 4,000 -60 Descending Memphis Center
05:05PM 35.4792 -91.3436 288° West 119 137 4,000  Level Memphis Center
05:06PM 35.4892 -91.3822 288° West 119 137 4,000  Level Memphis Center
05:07PM 35.4953 -91.4103 285° West 119 137 4,000  Level Memphis Center
05:08PM 35.4597 -91.4250 199° South 119 137 4,000  Level Memphis Center
05:09PM 35.4617 -91.4303 294° West 119 137 4,000  Level Memphis Center
05:10PM 35.4656 -91.4686 277° West 119 137 4,000  Level Memphis Center